This is the latest recevied weather packets stored in our database for station/object K1WJY. If no packets are shown the sender has not sent any weather packets the latest 10 day(s).
| Time | Temp. | Humidity | Pressure | Rain* | Wind** | Luminosity | Snow |
|---|---|---|---|---|---|---|---|
| 1787936910 | 22.78° C | 98% | 1017.8 hPa | 0 mm | - | 133 W/m² | - |
| 1787936610 | 22.78° C | 98% | 1018.2 hPa | 0 mm | - | 127 W/m² | - |
| 1787936309 | 22.78° C | 97% | 1018.2 hPa | 0 mm | - | 142 W/m² | - |
| 1787936005 | 22.78° C | 98% | 1018.1 hPa | 0 mm | - | 202 W/m² | - |
| 1787935700 | 22.78° C | 98% | 1018.4 hPa | 0 mm | - | 192 W/m² | - |
| 1787935396 | 22.78° C | 98% | 1018.2 hPa | 0 mm | - | 105 W/m² | - |
| 1787935092 | 22.78° C | 98% | 1018.3 hPa | 0 mm | - | 157 W/m² | - |
| 1787934788 | 22.78° C | 98% | 1018.3 hPa | 0 mm | - | 130 W/m² | - |
| 1787934487 | 22.78° C | 98% | 1018.5 hPa | 0 mm | - | 101 W/m² | - |
| 1787934181 | 22.78° C | 97% | 1018.5 hPa | 0 mm | - | 83 W/m² | - |
| 1787933880 | 22.78° C | 97% | 1018.5 hPa | 0 mm | - | 114 W/m² | - |
| 1787933575 | 23.33° C | 97% | 1018.6 hPa | 0 mm | - | 238 W/m² | - |
| 1787933275 | 23.33° C | 96% | 1018.6 hPa | 0 mm | - | 188 W/m² | - |
| 1787932974 | 23.33° C | 96% | 1018.6 hPa | 0 mm | - | 142 W/m² | - |
| 1787932674 | 23.33° C | 96% | 1018.7 hPa | 0 mm | - | 149 W/m² | - |
| 1787932374 | 23.33° C | 95% | 1018.5 hPa | 0 mm | - | 131 W/m² | - |
| 1787932074 | 23.33° C | 95% | 1018.7 hPa | 0 mm | - | 209 W/m² | - |
| 1787931772 | 23.33° C | 95% | 1018.8 hPa | 0 mm | - | 232 W/m² | - |
| 1787931467 | 23.89° C | 94% | 1018.6 hPa | 0 mm | - | 225 W/m² | - |
| 1787931162 | 23.89° C | 94% | 1018.6 hPa | 0 mm | - | 186 W/m² | - |
| 1787930861 | 23.89° C | 94% | 1018.9 hPa | 0 mm | - | 210 W/m² | - |
| 1787930555 | 23.89° C | 93% | 1018.9 hPa | 0 mm | - | 357 W/m² | - |
| 1787930250 | 23.33° C | 94% | 1018.8 hPa | 0 mm | - | 271 W/m² | - |
| 1787929949 | 23.33° C | 94% | 1018.8 hPa | 0 mm | - | 123 W/m² | - |
| 1787929644 | 23.33° C | 94% | 1018.7 hPa | 0 mm | - | 128 W/m² | - |
* Rain latest hour (hover to see other rain measurements)
** Current wind speed in m/s (hover to see current wind gust speed)